VK2OU Weather Reports


Display with metric or nautical units.
time (UTC)temp
F
wind
direction
speed
MPH
gust
MPH
rain 1hr
in
rain 24hr
in
rain mn
in
humidity
%
barometer
mb
20260903045524 58 280 13.0 29.0 0.00 0.00 0.00 57
20260903044552 59 270 11.0 21.0 0.00 0.00 0.00 56
20260903043524 59 268 12.0 24.0 0.00 0.00 0.00 55
20260903042532 58 273 12.0 21.0 0.00 0.00 0.00 56
20260903041524 59 286 9.0 18.0 0.00 0.00 0.00 57
20260903040532 59 288 9.0 17.0 0.00 0.00 0.00 56
20260903035524 59 285 9.0 19.0 0.00 0.00 0.00 55
20260903034532 59 285 8.0 19.0 0.00 0.00 0.00 57
20260903033524 59 286 9.0 22.0 0.00 0.00 0.00 57
20260903032532 59 280 7.0 11.0 0.00 0.00 0.00 57
20260903031524 59 269 10.0 17.0 0.00 0.00 0.00 55
20260903030532 59 275 10.0 19.0 0.00 0.00 0.00 55
20260903025526 59 280 9.0 21.0 0.00 0.00 0.00 57
20260903024534 59 291 9.0 18.0 0.00 0.00 0.00 56
20260903023524 60 285 9.0 16.0 0.00 0.00 0.00 53
20260903022532 60 274 8.0 17.0 0.00 0.00 0.00 55
20260903021524 60 282 8.0 17.0 0.00 0.00 0.00 53
20260903020532 60 271 8.0 15.0 0.00 0.00 0.00 52
20260903015540 60 274 9.0 19.0 0.00 0.00 0.00 49
20260903014548 60 274 10.0 18.0 0.00 0.00 0.00 49
20260903013524 60 276 8.0 16.0 0.00 0.00 0.00 49
20260903012532 60 279 8.0 14.0 0.00 0.00 0.00 51
20260903011526 59 273 8.0 16.0 0.00 0.00 0.00 50
20260903010532 59 279 10.0 18.0 0.00 0.00 0.00 50
20260903005524 59 264 11.0 24.0 0.00 0.00 0.00 52
20260903004532 59 267 9.0 19.0 0.00 0.00 0.00 55
20260903003525 58 265 11.0 19.0 0.00 0.00 0.00 56
20260903002532 58 268 11.0 19.0 0.00 0.00 0.00 59
20260903001524 58 266 12.0 22.0 0.00 0.00 0.00 61
20260903000532 58 264 10.0 19.0 0.00 0.00 0.00 62
20260902235526 58 266 8.0 16.0 0.00 0.00 0.00 64
20260902234553 59 260 9.0 19.0 0.00 0.00 0.00 66
20260902233524 58 250 8.0 16.0 0.00 0.00 0.00 65
20260902232532 58 267 10.0 18.0 0.00 0.00 0.00 66
20260902231525 58 267 10.0 19.0 0.00 0.00 0.00 69
20260902230533 57 276 8.0 17.0 0.00 0.00 0.00 73
20260902225525 56 272 9.0 17.0 0.00 0.00 0.00 77
20260902224533 56 271 7.0 14.0 0.00 0.00 0.00 80
20260902223525 56 266 5.0 10.0 0.00 0.00 0.00 85
20260902222532 55 279 8.0 18.0 0.00 0.00 0.00 87
20260902221524 55 271 5.0 13.0 0.00 0.00 0.00 90
20260902220533 54 277 7.0 14.0 0.00 0.00 0.00 91
20260902215524 54 267 5.0 14.0 0.00 0.00 0.00 95
20260902214532 53 280 4.0 9.0 0.00 0.00 0.00 97
20260902213524 52 277 3.0 8.0 0.00 0.00 0.00 98
20260902212533 52 286 5.0 10.0 0.00 0.00 0.00 98
20260902211545 52 276 4.0 8.0 0.00 0.00 0.00 98
20260902210532 52 273 5.0 10.0 0.00 0.00 0.00 98
20260902205544 52 275 4.0 8.0 0.00 0.00 0.00 98
20260902204532 52 265 5.0 9.0 0.00 0.00 0.00 98
20260902203524 52 263 4.0 8.0 0.00 0.00 0.00 98
20260902202533 52 267 5.0 10.0 0.00 0.00 0.00 98
20260902201525 52 274 5.0 10.0 0.00 0.00 0.00 98
20260902200553 51 269 5.0 11.0 0.00 0.00 0.00 98
20260902195525 52 273 5.0 10.0 0.00 0.00 0.00 98
20260902194533 52 284 4.0 10.0 0.00 0.00 0.00 98
20260902193525 52 270 4.0 10.0 0.00 0.00 0.00 98
20260902192532 52 290 6.0 13.0 0.00 0.00 0.00 98
20260902191525 52 280 5.0 9.0 0.00 0.00 0.00 98
20260902190533 52 282 5.0 10.0 0.00 0.00 0.00 98
20260902185524 52 282 4.0 10.0 0.00 0.00 0.00 98
20260902184534 52 276 4.0 8.0 0.00 0.00 0.00 98
20260902183525 52 267 4.0 7.0 0.00 0.00 0.00 98
20260902182532 52 268 4.0 9.0 0.00 0.00 0.00 98
20260902181525 52 293 4.0 9.0 0.00 0.00 0.00 98
20260902180533 52 268 2.0 6.0 0.00 0.00 0.00 98
20260902175524 52 280 3.0 6.0 0.00 0.00 0.00 98
20260902174533 52 256 2.0 5.0 0.00 0.00 0.00 98
20260902173524 52 278 4.0 8.0 0.00 0.00 0.00 98
20260902172533 52 268 2.0 5.0 0.00 0.00 0.00 98
20260902171525 52 274 2.0 5.0 0.00 0.00 0.00 98
20260902170533 52 271 2.0 6.0 0.00 0.00 0.00 97
20260902165525 52 271 3.0 7.0 0.00 0.00 0.00 97
20260902164534 52 273 3.0 7.0 0.00 0.00 0.00 97
20260902163528 52 273 2.0 6.0 0.00 0.00 0.00 97
20260902162533 52 262 2.0 5.0 0.00 0.00 0.00 97
20260902161545 52 260 2.0 6.0 0.00 0.00 0.00 96
20260902160533 52 265 1.0 5.0 0.00 0.00 0.00 96
20260902155525 53 269 2.0 3.0 0.00 0.00 0.00 96
20260902154533 53 241 0.0 2.0 0.00 0.00 0.00 95
20260902153525 53 250 1.0 3.0 0.00 0.00 0.00 95
20260902152533 53 249 0.0 2.0 0.00 0.00 0.00 95
20260902151525 53 272 1.0 3.0 0.00 0.00 0.00 95
20260902150533 53 248 2.0 8.0 0.00 0.00 0.00 95
20260902145545 53 267 3.0 6.0 0.00 0.00 0.00 96
20260902144553 53 264 3.0 6.0 0.00 0.00 0.00 96
20260902143526 53 265 3.0 6.0 0.00 0.00 0.00 95
20260902142533 53 277 3.0 7.0 0.00 0.00 0.00 95
20260902141525 53 274 4.0 8.0 0.00 0.00 0.00 95
20260902140533 54 279 5.0 10.0 0.00 0.00 0.00 94
20260902135627 54 278 6.0 11.0 0.00 0.00 0.00 93
20260902134653 54 282 6.0 13.0 0.00 0.00 0.00 92
20260902133525 54 284 6.0 11.0 0.00 0.00 0.00 90
20260902132533 55 276 8.0 17.0 0.00 0.00 0.00 86
20260902131545 57 281 7.0 15.0 0.00 0.00 0.00 81
20260902130533 57 267 9.0 17.0 0.00 0.00 0.00 79
20260902125545 56 256 9.0 16.0 0.00 0.00 0.00 82
20260902124533 55 278 6.0 13.0 0.00 0.00 0.00 84
20260902123525 55 271 5.0 10.0 0.00 0.00 0.00 85
20260902122533 55 289 3.0 8.0 0.00 0.00 0.00 86
20260902121524 55 276 2.0 5.0 0.00 0.00 0.00 86
20260902120533 55 262 2.0 5.0 0.00 0.00 0.00 85
20260902115525 55 267 2.0 3.0 0.00 0.00 0.00 84
20260902114533 55 266 2.0 5.0 0.00 0.00 0.00 84
20260902113526 56 244 1.0 2.0 0.00 0.00 0.00 83
20260902112533 56 263 2.0 6.0 0.00 0.00 0.00 82
20260902111545 56 275 2.0 6.0 0.00 0.00 0.00 81
20260902110533 56 279 2.0 7.0 0.00 0.00 0.00 81
20260902105525 56 275 4.0 7.0 0.00 0.00 0.00 80
20260902104553 56 270 3.0 7.0 0.00 0.00 0.00 80
20260902103545 56 273 3.0 7.0 0.00 0.00 0.00 79
20260902102533 57 268 2.0 6.0 0.00 0.00 0.00 78
20260902101526 57 258 1.0 3.0 0.00 0.00 0.00 77
20260902100533 56 264 2.0 6.0 0.00 0.00 0.00 77
20260902095526 57 240 0.0 2.0 0.00 0.00 0.00 76
20260902094533 57 270 1.0 2.0 0.00 0.00 0.00 75
20260902093526 57 257 1.0 3.0 0.00 0.00 0.00 74
20260902092553 57 265 2.0 6.0 0.00 0.00 0.00 73
20260902091525 58 280 4.0 10.0 0.00 0.00 0.00 72
20260902090533 58 277 4.0 8.0 0.00 0.00 0.00 71
20260902085525 58 271 5.0 10.0 0.00 0.00 0.00 70
20260902084533 58 272 6.0 16.0 0.00 0.00 0.00 69
20260902083545 58 262 5.0 10.0 0.00 0.00 0.00 69
20260902082533 58 279 5.0 9.0 0.00 0.00 0.00 68
20260902081525 58 280 6.0 13.0 0.00 0.00 0.00 68
20260902080533 59 275 2.0 7.0 0.00 0.00 0.00 67
20260902075525 59 281 3.0 8.0 0.00 0.00 0.00 65
20260902074549 60 275 5.0 13.0 0.00 0.00 0.00 64
20260902073527 60 288 6.0 10.0 0.00 0.00 0.00 63
20260902072533 60 279 4.0 9.0 0.00 0.00 0.00 63
20260902071525 61 251 3.0 7.0 0.00 0.00 0.00 62
20260902070549 62 272 4.0 8.0 0.00 0.00 0.00 59
20260902065547 63 272 6.0 11.0 0.00 0.00 0.00 56
20260902064553 63 263 5.0 15.0 0.00 0.00 0.00 55
20260902063525 64 269 7.0 19.0 0.00 0.00 0.00 54
20260902062533 64 274 7.0 14.0 0.00 0.00 0.00 55
20260902061525 64 272 7.0 16.0 0.00 0.00 0.00 53
20260902060534 65 264 10.0 16.0 0.00 0.00 0.00 52
20260902055526 65 261 5.0 10.0 0.00 0.00 0.00 52
20260902054533 66 260 7.0 16.0 0.00 0.00 0.00 52
20260902053527 65 262 7.0 16.0 0.00 0.00 0.00 51
20260902052549 65 270 8.0 22.0 0.00 0.00 0.00 52
20260902051525 65 253 5.0 11.0 0.00 0.00 0.00 52
20260902050533 64 250 3.0 8.0 0.00 0.00 0.00 54